AZU1316 SBEG-KMIA

Flight info

Callsign AZU1316
Flight time N/A
Altitude 37000
Route ITAMI UL322 TIM/N0475F380 DCT KORTO UG449 ANADA L452 BQN R763 HARBG Y421 HAGIT Y308 MADIZ VIICE2
Aircraft A339/H-SADE1E2E3GHIJ3J5M1P2RWXY/LB2D1

Departure

Time 2026-04-19 03:15
Airport Eduardo Gomes International Airport (SBEG)

Arrival

Time N/A
Airport Miami International Airport (KMIA)
Time Latitude Longitude Altitude Speed Heading
2026-04-19 02:41 -3.03280 -60.04538 282 ft 0 kts 354°
2026-04-19 03:03 -3.03288 -60.04538 281 ft 2 kts 354°
2026-04-19 03:03 -3.03299 -60.04536 281 ft 0 kts 354°
2026-04-19 03:03 -3.03311 -60.04534 281 ft 2 kts 339°
2026-04-19 03:04 -3.03324 -60.04527 281 ft 2 kts 319°
2026-04-19 03:04 -3.03335 -60.04516 281 ft 2 kts 301°
2026-04-19 03:04 -3.03341 -60.04503 281 ft 2 kts 283°
2026-04-19 03:04 -3.03342 -60.04488 281 ft 2 kts 264°
2026-04-19 03:05 -3.03342 -60.04481 281 ft 0 kts 260°
2026-04-19 03:05 -3.03341 -60.04481 281 ft 0 kts 260°
2026-04-19 03:07 -3.03342 -60.04481 281 ft 0 kts 260°
2026-04-19 03:07 -3.03344 -60.04499 281 ft 4 kts 260°
2026-04-19 03:07 -3.03352 -60.04548 281 ft 8 kts 262°
2026-04-19 03:07 -3.03354 -60.04611 281 ft 10 kts 271°
2026-04-19 03:08 -3.03353 -60.04684 281 ft 13 kts 267°
2026-04-19 03:08 -3.03368 -60.04758 281 ft 14 kts 249°
2026-04-19 03:08 -3.03434 -60.04848 281 ft 16 kts 221°
2026-04-19 03:08 -3.03510 -60.04909 281 ft 17 kts 221°
2026-04-19 03:09 -3.03593 -60.05047 281 ft 19 kts 253°
2026-04-19 03:09 -3.03622 -60.05160 281 ft 19 kts 256°
2026-04-19 03:09 -3.03657 -60.05299 281 ft 20 kts 256°
2026-04-19 03:09 -3.03673 -60.05373 281 ft 21 kts 259°
2026-04-19 03:10 -3.03691 -60.05586 281 ft 22 kts 270°
2026-04-19 03:10 -3.03690 -60.05726 281 ft 22 kts 270°
2026-04-19 03:10 -3.03690 -60.05892 281 ft 21 kts 270°
2026-04-19 03:10 -3.03689 -60.06002 281 ft 21 kts 270°
2026-04-19 03:11 -3.03708 -60.06142 281 ft 17 kts 237°
2026-04-19 03:11 -3.03745 -60.06166 281 ft 0 kts 198°
2026-04-19 03:11 -3.03746 -60.06166 281 ft 0 kts 198°
2026-04-19 03:12 -3.03782 -60.06176 281 ft 13 kts 189°
2026-04-19 03:13 -3.03851 -60.06170 281 ft 6 kts 131°
2026-04-19 03:13 -3.03859 -60.06138 281 ft 5 kts 90°
2026-04-19 03:13 -3.03859 -60.06128 281 ft 0 kts 90°
2026-04-19 03:14 -3.03859 -60.06094 281 ft 25 kts 90°
2026-04-19 03:14 -3.03860 -60.05608 282 ft 103 kts 90°
2026-04-19 03:14 -3.03859 -60.04726 283 ft 160 kts 90°
2026-04-19 03:14 -3.03860 -60.04436 300 ft 170 kts 89°
2026-04-19 03:15 -3.03859 -60.04155 330 ft 179 kts 89°
2026-04-19 03:15 -3.03861 -60.02711 1045 ft 185 kts 90°
2026-04-19 03:15 -3.03850 -60.01345 2124 ft 171 kts 80°
2026-04-19 03:15 -3.03299 -60.00357 2594 ft 174 kts 37°
2026-04-19 03:16 -3.02115 -59.99941 2885 ft 191 kts
2026-04-19 03:16 -3.00750 -59.99799 3193 ft 208 kts
2026-04-19 03:16 -2.99293 -59.99665 3525 ft 225 kts
2026-04-19 03:16 -2.97754 -59.99511 3869 ft 242 kts
2026-04-19 03:17 -2.96036 -59.99325 4228 ft 259 kts
2026-04-19 03:17 -2.94254 -59.99122 4736 ft 270 kts
2026-04-19 03:17 -2.92382 -59.98904 5447 ft 272 kts
2026-04-19 03:17 -2.90549 -59.98687 6128 ft 275 kts
2026-04-19 03:18 -2.88665 -59.98461 6792 ft 278 kts
2026-04-19 03:18 -2.86748 -59.98230 7448 ft 281 kts
2026-04-19 03:18 -2.84836 -59.97998 8092 ft 284 kts
2026-04-19 03:18 -2.83543 -59.97841 8521 ft 286 kts
2026-04-19 03:19 -2.81014 -59.97533 9343 ft 289 kts
2026-04-19 03:19 -2.79190 -59.97311 9921 ft 292 kts
2026-04-19 03:19 -2.77113 -59.97058 10444 ft 300 kts
2026-04-19 03:19 -2.75266 -59.96831 10696 ft 314 kts
2026-04-19 03:20 -2.72892 -59.96540 10997 ft 331 kts
2026-04-19 03:20 -2.70942 -59.96301 11229 ft 344 kts
2026-04-19 03:20 -2.68214 -59.95968 11530 ft 361 kts
2026-04-19 03:20 -2.65768 -59.95670 11785 ft 375 kts
2026-04-19 03:21 -2.63116 -59.95347 12136 ft 387 kts
2026-04-19 03:21 -2.60438 -59.95022 12729 ft 391 kts
2026-04-19 03:21 -2.57682 -59.94688 13385 ft 394 kts
2026-04-19 03:21 -2.55070 -59.94370 13979 ft 397 kts
2026-04-19 03:22 -2.52336 -59.94038 14572 ft 401 kts
2026-04-19 03:22 -2.49573 -59.93702 15164 ft 404 kts
2026-04-19 03:22 -2.46747 -59.93357 15760 ft 408 kts
2026-04-19 03:22 -2.43952 -59.93017 16336 ft 411 kts
2026-04-19 03:23 -2.42062 -59.92787 16718 ft 414 kts
2026-04-19 03:23 -2.38235 -59.92321 17476 ft 418 kts
2026-04-19 03:23 -2.36300 -59.92086 17850 ft 420 kts
2026-04-19 03:23 -2.32393 -59.91610 18589 ft 425 kts
2026-04-19 03:24 -2.29467 -59.91254 19126 ft 428 kts
2026-04-19 03:24 -2.26501 -59.90893 19656 ft 431 kts
2026-04-19 03:24 -2.23545 -59.90533 20164 ft 435 kts
2026-04-19 03:24 -2.20515 -59.90164 20663 ft 438 kts
2026-04-19 03:25 -2.17449 -59.89790 21154 ft 441 kts
2026-04-19 03:25 -2.14418 -59.89421 21627 ft 444 kts
2026-04-19 03:25 -2.11346 -59.89047 22085 ft 447 kts
2026-04-19 03:25 -2.08250 -59.88670 22532 ft 450 kts
2026-04-19 03:26 -2.05122 -59.88289 22968 ft 453 kts
2026-04-19 03:26 -2.02014 -59.87911 23387 ft 455 kts
2026-04-19 03:26 -1.98862 -59.87527 23797 ft 458 kts
2026-04-19 03:26 -1.95673 -59.87138 24201 ft 461 kts
2026-04-19 03:27 -1.93670 -59.86894 24449 ft 463 kts
2026-04-19 03:27 -1.89333 -59.86366 24969 ft 466 kts
2026-04-19 03:27 -1.86252 -59.85992 25321 ft 468 kts
2026-04-19 03:27 -1.82976 -59.85592 25687 ft 471 kts
2026-04-19 03:28 -1.79750 -59.85199 26039 ft 473 kts
2026-04-19 03:28 -1.76493 -59.84803 26383 ft 476 kts
2026-04-19 03:28 -1.74524 -59.84563 26583 ft 477 kts
2026-04-19 03:28 -1.71085 -59.84144 26928 ft 479 kts
2026-04-19 03:29 -1.66816 -59.83623 27343 ft 482 kts
2026-04-19 03:29 -1.63509 -59.83220 27656 ft 484 kts
2026-04-19 03:29 -1.60256 -59.82825 27951 ft 486 kts
2026-04-19 03:29 -1.57004 -59.82375 28263 ft 487 kts 10°
2026-04-19 03:30 -1.53628 -59.81751 28703 ft 486 kts 12°
2026-04-19 03:30 -1.51448 -59.81313 29005 ft 485 kts 12°
2026-04-19 03:30 -1.47040 -59.80412 29577 ft 483 kts 12°
2026-04-19 03:30 -1.43762 -59.79739 29976 ft 482 kts 12°
2026-04-19 03:31 -1.40510 -59.79071 30359 ft 481 kts 12°
2026-04-19 03:31 -1.37254 -59.78405 30740 ft 480 kts 12°
2026-04-19 03:31 -1.34011 -59.77742 31113 ft 479 kts 12°
2026-04-19 03:31 -1.30782 -59.77083 31479 ft 478 kts 12°
2026-04-19 03:32 -1.27545 -59.76423 31835 ft 478 kts 12°
2026-04-19 03:32 -1.24281 -59.75757 32187 ft 477 kts 12°
2026-04-19 03:32 -1.22132 -59.75319 32415 ft 476 kts 12°
2026-04-19 03:32 -1.17820 -59.74440 32866 ft 475 kts 12°
2026-04-19 03:33 -1.14587 -59.73781 33192 ft 474 kts 12°
2026-04-19 03:33 -1.11371 -59.73125 33516 ft 473 kts 12°
2026-04-19 03:33 -1.08153 -59.72467 33816 ft 473 kts 12°
2026-04-19 03:33 -1.04919 -59.71806 34082 ft 473 kts 12°
2026-04-19 03:34 -1.01708 -59.71149 34357 ft 473 kts 11°
2026-04-19 03:34 -0.98452 -59.70485 34669 ft 472 kts 11°
2026-04-19 03:34 -0.95277 -59.69838 35011 ft 470 kts 11°
2026-04-19 03:34 -0.92116 -59.69196 35349 ft 468 kts 11°
2026-04-19 03:35 -0.89915 -59.68749 35558 ft 467 kts 11°
2026-04-19 03:35 -0.86874 -59.68129 35817 ft 466 kts 11°
2026-04-19 03:35 -0.82660 -59.67270 36133 ft 465 kts 11°
2026-04-19 03:35 -0.80634 -59.66857 36267 ft 465 kts 11°
2026-04-19 03:36 -0.76309 -59.65976 36506 ft 467 kts 11°
2026-04-19 03:36 -0.73125 -59.65329 36664 ft 468 kts 11°
2026-04-19 03:36 -0.69942 -59.64681 36822 ft 469 kts 11°
2026-04-19 03:36 -0.67819 -59.64249 36927 ft 470 kts 11°
2026-04-19 03:37 -0.64602 -59.63595 37085 ft 470 kts 11°
2026-04-19 03:37 -0.61422 -59.62947 37236 ft 471 kts 11°
2026-04-19 03:37 -0.58194 -59.62289 37379 ft 472 kts 11°
2026-04-19 03:37 -0.53922 -59.61419 37562 ft 473 kts 11°
2026-04-19 03:38 -0.51779 -59.60982 37655 ft 474 kts 11°
2026-04-19 03:38 -0.48555 -59.60326 37789 ft 475 kts 11°
2026-04-19 03:38 -0.45308 -59.59664 37913 ft 476 kts 11°
2026-04-19 03:39 -0.37756 -59.58125 37925 ft 477 kts 11°
2026-04-19 03:39 -0.31263 -59.56802 37927 ft 477 kts 11°
2026-04-19 03:40 -0.25893 -59.55708 37927 ft 477 kts 11°
2026-04-19 03:40 -0.18328 -59.54166 37927 ft 477 kts 11°
2026-04-19 03:41 -0.11823 -59.52840 37927 ft 477 kts 11°
2026-04-19 03:41 -0.05375 -59.51527 37927 ft 477 kts 11°
2026-04-19 03:42 0.00063 -59.50418 37927 ft 477 kts 11°
2026-04-19 03:42 0.07619 -59.48878 37927 ft 477 kts 11°
2026-04-19 03:43 0.14095 -59.47558 37927 ft 477 kts 11°
2026-04-19 03:43 0.20592 -59.46234 37927 ft 477 kts 11°
2026-04-19 03:44 0.27062 -59.44914 37927 ft 477 kts 11°
2026-04-19 03:44 0.32476 -59.43811 37927 ft 477 kts 11°
2026-04-19 03:45 0.38956 -59.42499 37927 ft 477 kts 11°
2026-04-19 03:45 0.46494 -59.40976 37927 ft 477 kts 11°
2026-04-19 03:46 0.52990 -59.39661 37927 ft 477 kts 11°
2026-04-19 03:46 0.59427 -59.38358 37927 ft 477 kts 11°
2026-04-19 03:47 0.64686 -59.37291 37927 ft 477 kts 11°
2026-04-19 03:47 0.71281 -59.35950 37927 ft 477 kts 11°
2026-04-19 03:48 0.78799 -59.34421 37927 ft 477 kts 11°
2026-04-19 03:48 0.84183 -59.33332 37927 ft 477 kts 11°
2026-04-19 03:49 0.90628 -59.32034 37927 ft 477 kts 11°
2026-04-19 03:49 0.97113 -59.30727 37927 ft 477 kts 11°
2026-04-19 03:50 1.04713 -59.29193 37927 ft 477 kts 11°
2026-04-19 03:50 1.11185 -59.27886 37927 ft 478 kts 11°
2026-04-19 03:51 1.17688 -59.26573 37927 ft 478 kts 11°
2026-04-19 03:51 1.23112 -59.25477 37927 ft 478 kts 11°
2026-04-19 03:52 1.29636 -59.24159 37927 ft 478 kts 11°
2026-04-19 03:52 1.36113 -59.22850 37927 ft 478 kts 11°
2026-04-19 03:53 1.42629 -59.21591 37927 ft 478 kts 10°
2026-04-19 03:53 1.50241 -59.20166 37927 ft 478 kts 10°
2026-04-19 03:54 1.56766 -59.18939 37927 ft 478 kts 10°
2026-04-19 03:54 1.62165 -59.17921 37927 ft 478 kts 10°
2026-04-19 03:55 1.68655 -59.16696 37927 ft 478 kts 10°
2026-04-19 03:55 1.76273 -59.15257 37927 ft 478 kts 10°
2026-04-19 03:56 1.81691 -59.14233 37927 ft 478 kts 10°
2026-04-19 03:56 1.88207 -59.13002 37927 ft 478 kts 10°
2026-04-19 03:57 1.95790 -59.11569 37927 ft 478 kts 10°
2026-04-19 03:57 2.01229 -59.10541 37927 ft 478 kts 10°
2026-04-19 03:58 2.08830 -59.09104 37927 ft 478 kts 10°
2026-04-19 03:58 2.14251 -59.08079 37927 ft 478 kts 10°
2026-04-19 03:59 2.20738 -59.06853 37927 ft 478 kts 10°
2026-04-19 03:59 2.27263 -59.05619 37927 ft 478 kts 10°
2026-04-19 04:00 2.33789 -59.04385 37927 ft 478 kts 10°
2026-04-19 04:00 2.41362 -59.02953 37927 ft 478 kts 10°
2026-04-19 04:01 2.47866 -59.01723 37927 ft 478 kts 10°
2026-04-19 04:01 2.57443 -58.99912 37927 ft 478 kts 10°
2026-04-19 04:02 2.63012 -58.98859 37927 ft 478 kts 10°
2026-04-19 04:02 2.69456 -58.97640 37927 ft 478 kts 10°
2026-04-19 04:03 2.77046 -58.96204 37927 ft 479 kts 10°
2026-04-19 04:03 2.82457 -58.95181 37927 ft 479 kts 10°
2026-04-19 04:04 2.90057 -58.93742 37927 ft 479 kts 10°
2026-04-19 04:04 2.95524 -58.92705 37927 ft 480 kts 10°
2026-04-19 04:05 3.02988 -58.91291 37927 ft 481 kts
2026-04-19 04:05 3.07920 -58.90357 37927 ft 482 kts
2026-04-19 04:06 3.14841 -58.89049 37927 ft 482 kts
2026-04-19 04:06 3.22371 -58.87624 37927 ft 481 kts
2026-04-19 04:07 3.27859 -58.86585 37927 ft 481 kts
2026-04-19 04:07 3.35525 -58.85133 37927 ft 481 kts
2026-04-19 04:08 3.42089 -58.83889 37927 ft 481 kts
2026-04-19 04:08 3.47524 -58.82859 37927 ft 481 kts
2026-04-19 04:09 3.55183 -58.81408 37927 ft 481 kts
2026-04-19 04:09 3.60615 -58.80378 37927 ft 480 kts
2026-04-19 04:10 3.68190 -58.78942 37927 ft 480 kts
2026-04-19 04:10 3.73594 -58.77917 37927 ft 480 kts
2026-04-19 04:11 3.80210 -58.76661 37927 ft 480 kts
2026-04-19 04:11 3.87870 -58.75208 37927 ft 480 kts
2026-04-19 04:12 3.94401 -58.73977 37927 ft 480 kts
2026-04-19 04:12 3.99803 -58.72959 37927 ft 480 kts
2026-04-19 04:13 4.06282 -58.71737 37927 ft 480 kts
2026-04-19 04:13 4.13841 -58.70310 37927 ft 480 kts
2026-04-19 04:14 4.19300 -58.69279 37927 ft 480 kts
2026-04-19 04:14 4.25804 -58.68050 37927 ft 480 kts
2026-04-19 04:15 4.32345 -58.66814 37927 ft 480 kts
2026-04-19 04:15 4.38916 -58.65573 37927 ft 480 kts
2026-04-19 04:16 4.45439 -58.64340 37927 ft 480 kts
2026-04-19 04:16 4.51969 -58.63106 37927 ft 480 kts
2026-04-19 04:17 4.58575 -58.61856 37927 ft 480 kts
2026-04-19 04:17 4.66234 -58.60408 37927 ft 480 kts
2026-04-19 04:18 4.71678 -58.59378 37927 ft 480 kts
2026-04-19 04:18 4.78183 -58.58148 37927 ft 480 kts
2026-04-19 04:19 4.85368 -58.56788 37927 ft 480 kts
2026-04-19 04:19 4.91064 -58.55710 37927 ft 480 kts
2026-04-19 04:20 4.97638 -58.54465 37927 ft 480 kts
2026-04-19 04:20 5.04193 -58.53222 37926 ft 483 kts
2026-04-19 04:21 5.10747 -58.51979 37926 ft 487 kts
2026-04-19 04:21 5.17472 -58.50708 37927 ft 490 kts
2026-04-19 04:22 5.24175 -58.49439 37927 ft 490 kts
2026-04-19 04:22 5.30877 -58.48169 37927 ft 490 kts
2026-04-19 04:23 5.37540 -58.46906 37927 ft 493 kts
2026-04-19 04:23 5.44107 -58.45661 37927 ft 494 kts
2026-04-19 04:24 5.50879 -58.44376 37927 ft 494 kts
2026-04-19 04:24 5.57620 -58.43096 37926 ft 494 kts
2026-04-19 04:25 5.64314 -58.41830 37927 ft 494 kts
2026-04-19 04:25 5.71003 -58.40592 37927 ft 494 kts
2026-04-19 04:26 5.77757 -58.39343 37927 ft 494 kts
2026-04-19 04:26 5.84501 -58.38092 37927 ft 494 kts
2026-04-19 04:27 5.91156 -58.36856 37927 ft 494 kts
2026-04-19 04:27 5.97885 -58.35607 37927 ft 494 kts
2026-04-19 04:28 6.04611 -58.34357 37927 ft 494 kts
2026-04-19 04:28 6.12407 -58.32908 37927 ft 494 kts
2026-04-19 04:29 6.17978 -58.31873 37927 ft 494 kts
2026-04-19 04:29 6.24725 -58.30618 37927 ft 494 kts
2026-04-19 04:30 6.31463 -58.29364 37927 ft 494 kts
2026-04-19 04:30 6.38156 -58.28118 37927 ft 494 kts
2026-04-19 04:31 6.44912 -58.27448 37926 ft 491 kts 358°
2026-04-19 04:31 6.51592 -58.28105 37927 ft 487 kts 346°
2026-04-19 04:32 6.57939 -58.30038 37926 ft 483 kts 335°
2026-04-19 04:32 6.63928 -58.32871 37927 ft 482 kts 331°
2026-04-19 04:33 6.69916 -58.35833 37927 ft 482 kts 331°
2026-04-19 04:33 6.75947 -58.38797 37927 ft 482 kts 331°
2026-04-19 04:34 6.81961 -58.41738 37927 ft 482 kts 332°
2026-04-19 04:34 6.87953 -58.44662 37927 ft 482 kts 332°
2026-04-19 04:35 6.94070 -58.47648 37927 ft 483 kts 332°
2026-04-19 04:35 7.00094 -58.50589 37927 ft 484 kts 332°
2026-04-19 04:36 7.06166 -58.53554 37927 ft 485 kts 332°
2026-04-19 04:36 7.12226 -58.56511 37927 ft 486 kts 332°
2026-04-19 04:37 7.18262 -58.59459 37927 ft 486 kts 332°
2026-04-19 04:37 7.24084 -58.62303 37927 ft 486 kts 332°
2026-04-19 04:38 7.30277 -58.65329 37927 ft 486 kts 332°
2026-04-19 04:38 7.36371 -58.68309 37927 ft 486 kts 332°
2026-04-19 04:39 7.42255 -58.71186 37927 ft 486 kts 332°
2026-04-19 04:39 7.48305 -58.74146 37927 ft 486 kts 332°
2026-04-19 04:40 7.54425 -58.77140 37927 ft 486 kts 332°
2026-04-19 04:40 7.60501 -58.80114 37926 ft 486 kts 332°
2026-04-19 04:41 7.66577 -58.83088 37927 ft 485 kts 332°
2026-04-19 04:41 7.72623 -58.86049 37927 ft 485 kts 332°
2026-04-19 04:42 7.78702 -58.89027 37927 ft 485 kts 332°
2026-04-19 04:42 7.84743 -58.91988 37927 ft 484 kts 332°
2026-04-19 04:43 7.90814 -58.94964 37927 ft 484 kts 332°
2026-04-19 04:43 7.96845 -58.97922 37927 ft 484 kts 332°
2026-04-19 04:44 8.02856 -59.00870 37927 ft 483 kts 331°
2026-04-19 04:44 8.08938 -59.03856 37927 ft 483 kts 331°
2026-04-19 04:45 8.14965 -59.06815 37927 ft 482 kts 331°
2026-04-19 04:45 8.20984 -59.09771 37927 ft 482 kts 331°
2026-04-19 04:46 8.26959 -59.12706 37927 ft 482 kts 331°
2026-04-19 04:46 8.32985 -59.15667 37927 ft 482 kts 331°
2026-04-19 04:47 8.39028 -59.18637 37927 ft 482 kts 331°
2026-04-19 04:47 8.45038 -59.21592 37927 ft 482 kts 331°
2026-04-19 04:48 8.51017 -59.24533 37927 ft 482 kts 331°
2026-04-19 04:48 8.57112 -59.27533 37926 ft 482 kts 331°
2026-04-19 04:49 8.63110 -59.30485 37927 ft 482 kts 331°
2026-04-19 04:49 8.69134 -59.33450 37927 ft 482 kts 331°
2026-04-19 04:50 8.75151 -59.36413 37928 ft 482 kts 331°
2026-04-19 04:50 8.81189 -59.39388 37931 ft 482 kts 331°
2026-04-19 04:51 8.87011 -59.42662 37936 ft 479 kts 324°
2026-04-19 04:51 8.92318 -59.46631 37942 ft 476 kts 317°
2026-04-19 04:52 8.97088 -59.51291 37947 ft 473 kts 309°
2026-04-19 04:52 9.01297 -59.56403 37950 ft 474 kts 306°
2026-04-19 04:53 9.05439 -59.61608 37951 ft 477 kts 307°
2026-04-19 04:53 9.09623 -59.66855 37951 ft 479 kts 307°
2026-04-19 04:54 9.13797 -59.72077 37951 ft 480 kts 307°
2026-04-19 04:54 9.18020 -59.77353 37952 ft 480 kts 307°
2026-04-19 04:55 9.22222 -59.82606 37952 ft 480 kts 307°
2026-04-19 04:55 9.26446 -59.87891 37952 ft 480 kts 307°
2026-04-19 04:56 9.30629 -59.93126 37952 ft 480 kts 307°
2026-04-19 04:56 9.34847 -59.98407 37952 ft 480 kts 307°
2026-04-19 04:57 9.39041 -60.03661 37952 ft 480 kts 307°
2026-04-19 04:57 9.43214 -60.08891 37951 ft 480 kts 307°
2026-04-19 04:58 9.47408 -60.14148 37952 ft 480 kts 307°
2026-04-19 04:58 9.51531 -60.19319 37952 ft 480 kts 307°
2026-04-19 04:59 9.55757 -60.24621 37951 ft 480 kts 307°
2026-04-19 04:59 9.59961 -60.29899 37951 ft 480 kts 307°
2026-04-19 05:00 9.64132 -60.35139 37952 ft 480 kts 307°
2026-04-19 05:00 9.68330 -60.40413 37952 ft 480 kts 307°
2026-04-19 05:01 9.72499 -60.45654 37952 ft 480 kts 307°
2026-04-19 05:01 9.76702 -60.50938 37952 ft 480 kts 307°
2026-04-19 05:02 9.80842 -60.56148 37952 ft 480 kts 307°
2026-04-19 05:02 9.85068 -60.61466 37952 ft 480 kts 307°
2026-04-19 05:03 9.89254 -60.66737 37952 ft 480 kts 307°
2026-04-19 05:03 9.93456 -60.72031 37952 ft 480 kts 307°
2026-04-19 05:04 9.97555 -60.77197 37952 ft 480 kts 307°
2026-04-19 05:04 10.01732 -60.82464 37952 ft 480 kts 307°
2026-04-19 05:05 10.05913 -60.87738 37952 ft 480 kts 307°
2026-04-19 05:05 10.10081 -60.92998 37952 ft 480 kts 307°
2026-04-19 05:06 10.14270 -60.98288 37950 ft 481 kts 307°
2026-04-19 05:06 10.18494 -61.03634 37950 ft 489 kts 308°
2026-04-19 05:07 10.22771 -61.09052 37951 ft 493 kts 309°
2026-04-19 05:07 10.27048 -61.14462 37952 ft 491 kts 310°
2026-04-19 05:08 10.33383 -61.22459 37953 ft 478 kts 311°
2026-04-19 05:09 10.37509 -61.27670 37952 ft 476 kts 311°
2026-04-19 05:09 10.41736 -61.32877 37951 ft 475 kts 314°
2026-04-19 05:10 10.46303 -61.37561 37951 ft 473 kts 320°
2026-04-19 05:10 10.51290 -61.41684 37952 ft 471 kts 326°
2026-04-19 05:11 10.56756 -61.45301 37953 ft 470 kts 331°
2026-04-19 05:11 10.62298 -61.48601 37952 ft 470 kts 332°
2026-04-19 05:12 10.67941 -61.51951 37952 ft 470 kts 332°
2026-04-19 05:12 10.73490 -61.55255 37952 ft 470 kts 332°
2026-04-19 05:13 10.79138 -61.58624 37952 ft 470 kts 332°
2026-04-19 05:13 10.84789 -61.61998 37952 ft 470 kts 332°
2026-04-19 05:14 10.90381 -61.65339 37952 ft 470 kts 332°
2026-04-19 05:14 10.96020 -61.68715 37952 ft 468 kts 332°
2026-04-19 05:15 11.01621 -61.72068 37952 ft 466 kts 333°
2026-04-19 05:15 11.07177 -61.75391 37952 ft 464 kts 333°
2026-04-19 05:16 11.12723 -61.78704 37951 ft 464 kts 333°
2026-04-19 05:16 11.18280 -61.82029 37951 ft 464 kts 333°
2026-04-19 05:17 11.23864 -61.85373 37952 ft 464 kts 333°
2026-04-19 05:17 11.29417 -61.88701 37951 ft 464 kts 333°
2026-04-19 05:18 11.34975 -61.92033 37951 ft 464 kts 333°
2026-04-19 05:18 11.40526 -61.95363 37951 ft 464 kts 333°
2026-04-19 05:19 11.46092 -61.98702 37951 ft 464 kts 333°
2026-04-19 05:19 11.51626 -62.02025 37951 ft 464 kts 333°
2026-04-19 05:20 11.57195 -62.05370 37953 ft 464 kts 333°
2026-04-19 05:20 11.62762 -62.08714 37952 ft 464 kts 333°
2026-04-19 05:21 11.68283 -62.12032 37951 ft 464 kts 333°
2026-04-19 05:21 11.73860 -62.15386 37951 ft 464 kts 333°
2026-04-19 05:22 11.79429 -62.18737 37951 ft 464 kts 333°
2026-04-19 05:22 11.84968 -62.22074 37951 ft 464 kts 333°
2026-04-19 05:23 11.90522 -62.25421 37951 ft 464 kts 333°
2026-04-19 05:23 11.96075 -62.28768 37951 ft 464 kts 333°
2026-04-19 05:24 12.01624 -62.32115 37952 ft 464 kts 333°
2026-04-19 05:24 12.07198 -62.35477 37951 ft 464 kts 333°
2026-04-19 05:25 12.12727 -62.38814 37952 ft 464 kts 333°
2026-04-19 05:25 12.18286 -62.42171 37951 ft 464 kts 333°
2026-04-19 05:26 12.23846 -62.45529 37952 ft 464 kts 333°
2026-04-19 05:26 12.29361 -62.48863 37951 ft 464 kts 333°
2026-04-19 05:27 12.34893 -62.52208 37951 ft 464 kts 333°
2026-04-19 05:27 12.40464 -62.55579 37952 ft 464 kts 333°
2026-04-19 05:28 12.46011 -62.58937 37951 ft 464 kts 333°
2026-04-19 05:28 12.51581 -62.62310 37951 ft 464 kts 333°
2026-04-19 05:29 12.57094 -62.65650 37953 ft 464 kts 333°
2026-04-19 05:29 12.62652 -62.69019 37952 ft 464 kts 333°
2026-04-19 05:30 12.68189 -62.72378 37952 ft 464 kts 333°
2026-04-19 05:30 12.73738 -62.75745 37952 ft 464 kts 333°
2026-04-19 05:31 12.79280 -62.79110 37952 ft 464 kts 333°
2026-04-19 05:31 12.84838 -62.82487 37952 ft 464 kts 333°
2026-04-19 05:32 12.90380 -62.85855 37952 ft 464 kts 333°
2026-04-19 05:32 12.95947 -62.89240 37952 ft 464 kts 333°
2026-04-19 05:33 13.01456 -62.92592 37952 ft 463 kts 333°
2026-04-19 05:33 13.06979 -62.95953 37952 ft 461 kts 333°
2026-04-19 05:34 13.12507 -62.99319 37952 ft 459 kts 333°
2026-04-19 05:34 13.17973 -63.02650 37952 ft 458 kts 333°
2026-04-19 05:35 13.23412 -63.05965 37952 ft 457 kts 333°
2026-04-19 05:35 13.28923 -63.09327 37952 ft 455 kts 332°
2026-04-19 05:36 13.34329 -63.12627 37951 ft 454 kts 332°
2026-04-19 05:36 13.39755 -63.15940 37951 ft 454 kts 332°
2026-04-19 05:37 13.45185 -63.19257 37952 ft 454 kts 332°
2026-04-19 05:37 13.50593 -63.22562 37951 ft 454 kts 332°
2026-04-19 05:38 13.56002 -63.25868 37953 ft 454 kts 332°
2026-04-19 05:38 13.61445 -63.29198 37952 ft 454 kts 332°
2026-04-19 05:39 13.66882 -63.32526 37953 ft 454 kts 332°
2026-04-19 05:39 13.72286 -63.35834 37953 ft 454 kts 332°
2026-04-19 05:40 13.77688 -63.39144 37953 ft 454 kts 332°
2026-04-19 05:40 13.83126 -63.42478 37955 ft 454 kts 332°
2026-04-19 05:41 13.88556 -63.45808 37959 ft 454 kts 332°
2026-04-19 05:41 13.93947 -63.49117 37963 ft 454 kts 332°
2026-04-19 05:42 13.99373 -63.52448 37967 ft 454 kts 332°
2026-04-19 05:42 14.04795 -63.55778 37971 ft 454 kts 332°
2026-04-19 05:43 14.10217 -63.59111 37978 ft 454 kts 332°
2026-04-19 05:43 14.15611 -63.62428 37984 ft 454 kts 332°
2026-04-19 05:44 14.21020 -63.65761 37986 ft 454 kts 332°
2026-04-19 05:44 14.26424 -63.69093 37987 ft 454 kts 332°
2026-04-19 05:45 14.31879 -63.72458 37987 ft 454 kts 332°
2026-04-19 05:45 14.37267 -63.75782 37987 ft 454 kts 332°
2026-04-19 05:46 14.42676 -63.79121 37987 ft 454 kts 332°
2026-04-19 05:46 14.48094 -63.82468 37987 ft 454 kts 332°
2026-04-19 05:47 14.53523 -63.85823 37987 ft 454 kts 332°
2026-04-19 05:47 14.58910 -63.89154 37988 ft 454 kts 332°
2026-04-19 05:48 14.64317 -63.92499 37987 ft 454 kts 332°
2026-04-19 05:48 14.69722 -63.95845 37987 ft 454 kts 332°
2026-04-19 05:49 14.75153 -63.99209 37987 ft 454 kts 332°
2026-04-19 05:49 14.80559 -64.02559 37992 ft 454 kts 332°
2026-04-19 05:50 14.85960 -64.05908 38003 ft 454 kts 332°
2026-04-19 05:50 14.91352 -64.09254 38018 ft 454 kts 332°
2026-04-19 05:51 14.96800 -64.12640 38028 ft 455 kts 331°
2026-04-19 05:51 15.02026 -64.16331 38032 ft 459 kts 326°
2026-04-19 05:52 15.07052 -64.20445 38034 ft 460 kts 324°
2026-04-19 05:52 15.12040 -64.24586 38034 ft 460 kts 324°
2026-04-19 05:53 15.17019 -64.28718 38034 ft 460 kts 324°
2026-04-19 05:53 15.22020 -64.32867 38034 ft 460 kts 324°
2026-04-19 05:54 15.26989 -64.36989 38034 ft 460 kts 324°
2026-04-19 05:54 15.31981 -64.41133 38034 ft 460 kts 324°
2026-04-19 05:55 15.36978 -64.45283 38034 ft 460 kts 324°
2026-04-19 05:55 15.41953 -64.49419 38034 ft 460 kts 324°
2026-04-19 05:56 15.46938 -64.53564 38034 ft 460 kts 324°
2026-04-19 05:56 15.51930 -64.57718 38034 ft 460 kts 324°
2026-04-19 05:57 15.56936 -64.61886 38036 ft 460 kts 324°
2026-04-19 05:57 15.61913 -64.66033 38035 ft 460 kts 324°
2026-04-19 05:58 15.66873 -64.70168 38034 ft 460 kts 324°
2026-04-19 05:58 15.71880 -64.74345 38034 ft 460 kts 324°
2026-04-19 05:59 15.76855 -64.78499 38034 ft 460 kts 324°
2026-04-19 05:59 15.81835 -64.82658 38034 ft 460 kts 324°
2026-04-19 06:00 15.86812 -64.86816 38034 ft 461 kts 324°
2026-04-19 06:00 15.91788 -64.90977 38034 ft 462 kts 324°
2026-04-19 06:01 15.96802 -64.95173 38034 ft 463 kts 323°
2026-04-19 06:01 16.01793 -64.99352 38034 ft 464 kts 323°
2026-04-19 06:02 16.06812 -65.03559 38034 ft 465 kts 323°
2026-04-19 06:02 16.11863 -65.07797 38034 ft 465 kts 323°
2026-04-19 06:03 16.16901 -65.12029 38034 ft 465 kts 323°
2026-04-19 06:03 16.21904 -65.16232 38034 ft 465 kts 323°
2026-04-19 06:04 16.26924 -65.20451 38034 ft 465 kts 323°
2026-04-19 06:04 16.31940 -65.24670 38034 ft 465 kts 323°
2026-04-19 06:05 16.36985 -65.28915 38034 ft 465 kts 323°
2026-04-19 06:05 16.42000 -65.33138 38034 ft 465 kts 323°
2026-04-19 06:06 16.47010 -65.37360 38034 ft 465 kts 323°
2026-04-19 06:06 16.52045 -65.41604 38034 ft 465 kts 323°
2026-04-19 06:07 16.56859 -65.45665 38036 ft 465 kts 323°
2026-04-19 06:07 16.61985 -65.49996 38035 ft 465 kts 323°
2026-04-19 06:08 16.67006 -65.54241 38034 ft 465 kts 323°
2026-04-19 06:08 16.72040 -65.58498 38034 ft 465 kts 323°
2026-04-19 06:09 16.77051 -65.62739 38033 ft 465 kts 323°
2026-04-19 06:09 16.82078 -65.66996 38033 ft 466 kts 323°
2026-04-19 06:10 16.87110 -65.71260 38033 ft 466 kts 323°
2026-04-19 06:10 16.92117 -65.75505 38033 ft 466 kts 323°
2026-04-19 06:11 16.97122 -65.79752 38033 ft 466 kts 323°
2026-04-19 06:11 17.02146 -65.84018 38031 ft 465 kts 323°
2026-04-19 06:12 17.09672 -65.90414 38026 ft 464 kts 323°
2026-04-19 06:12 17.14661 -65.94659 38023 ft 463 kts 323°
2026-04-19 06:13 17.19647 -65.98904 38020 ft 463 kts 323°
2026-04-19 06:13 17.24619 -66.03140 38017 ft 463 kts 323°
2026-04-19 06:14 17.29608 -66.07392 38015 ft 463 kts 323°
2026-04-19 06:14 17.34580 -66.11635 38015 ft 463 kts 322°
2026-04-19 06:15 17.39591 -66.15911 38015 ft 463 kts 322°
2026-04-19 06:15 17.44585 -66.20178 38015 ft 463 kts 322°
2026-04-19 06:16 17.49543 -66.24417 38015 ft 463 kts 322°
2026-04-19 06:16 17.54557 -66.28706 38015 ft 464 kts 322°
2026-04-19 06:17 17.59526 -66.32962 38016 ft 464 kts 322°
2026-04-19 06:17 17.64488 -66.37214 38015 ft 464 kts 322°
2026-04-19 06:18 17.69475 -66.41489 38015 ft 464 kts 322°
2026-04-19 06:18 17.74451 -66.45760 38015 ft 464 kts 322°
2026-04-19 06:19 17.79439 -66.50043 38015 ft 464 kts 322°
2026-04-19 06:19 17.84441 -66.54342 38015 ft 464 kts 322°
2026-04-19 06:20 17.89364 -66.58576 38015 ft 464 kts 322°
2026-04-19 06:20 17.94348 -66.62865 38015 ft 464 kts 322°
2026-04-19 06:21 17.99263 -66.67099 38015 ft 464 kts 322°
2026-04-19 06:21 18.04241 -66.71390 38015 ft 464 kts 322°
2026-04-19 06:22 18.09189 -66.75658 38015 ft 464 kts 322°
2026-04-19 06:22 18.14160 -66.79949 38015 ft 464 kts 322°
2026-04-19 06:23 18.19151 -66.84261 38015 ft 464 kts 322°
2026-04-19 06:23 18.24120 -66.88556 38015 ft 464 kts 322°
2026-04-19 06:24 18.29106 -66.92870 38015 ft 464 kts 322°
2026-04-19 06:24 18.34071 -66.97169 38015 ft 464 kts 322°
2026-04-19 06:25 18.39029 -67.01464 38015 ft 464 kts 322°
2026-04-19 06:25 18.44006 -67.05780 38015 ft 465 kts 322°
2026-04-19 06:26 18.48842 -67.10189 38014 ft 467 kts 319°
2026-04-19 06:26 18.53331 -67.15142 38015 ft 469 kts 313°
2026-04-19 06:27 18.57561 -67.20348 38016 ft 470 kts 313°
2026-04-19 06:27 18.61779 -67.25577 38015 ft 471 kts 313°
2026-04-19 06:28 18.66017 -67.30826 38015 ft 471 kts 313°
2026-04-19 06:28 18.70277 -67.36101 38015 ft 471 kts 313°
2026-04-19 06:29 18.74497 -67.41328 38015 ft 471 kts 313°
2026-04-19 06:29 18.78738 -67.46585 38015 ft 471 kts 313°
2026-04-19 06:30 18.82985 -67.51853 38015 ft 471 kts 313°
2026-04-19 06:30 18.87203 -67.57090 38015 ft 471 kts 313°
2026-04-19 06:31 18.91442 -67.62356 38015 ft 471 kts 313°
2026-04-19 06:31 18.95681 -67.67625 38015 ft 471 kts 312°
2026-04-19 06:32 18.99928 -67.72911 38015 ft 472 kts 312°
2026-04-19 06:32 19.04138 -67.78156 38015 ft 472 kts 312°
2026-04-19 06:33 19.08404 -67.83478 38015 ft 472 kts 312°
2026-04-19 06:33 19.12605 -67.88724 38015 ft 469 kts 312°
2026-04-19 06:34 19.16815 -67.93983 38015 ft 468 kts 312°
2026-04-19 06:34 19.21005 -67.99222 38016 ft 468 kts 312°
2026-04-19 06:35 19.25225 -68.04502 38019 ft 468 kts 312°
2026-04-19 06:35 19.29404 -68.09736 38016 ft 468 kts 312°
2026-04-19 06:36 19.33522 -68.14896 38011 ft 468 kts 311°
2026-04-19 06:36 19.37718 -68.20160 38009 ft 468 kts 311°
2026-04-19 06:37 19.41923 -68.25440 38008 ft 468 kts 311°
2026-04-19 06:37 19.46106 -68.30695 38008 ft 468 kts 311°
2026-04-19 06:38 19.50303 -68.35975 38008 ft 468 kts 311°
2026-04-19 06:38 19.54463 -68.41213 38008 ft 468 kts 311°
2026-04-19 06:39 19.58655 -68.46495 38008 ft 468 kts 311°
2026-04-19 06:39 19.62850 -68.51785 38008 ft 468 kts 311°
2026-04-19 06:40 19.67044 -68.57080 38008 ft 468 kts 311°
2026-04-19 06:40 19.71222 -68.62358 38008 ft 468 kts 311°
2026-04-19 06:41 19.75383 -68.67620 38008 ft 468 kts 311°
2026-04-19 06:41 19.79567 -68.72916 38008 ft 468 kts 311°
2026-04-19 06:42 19.83731 -68.78190 38008 ft 468 kts 311°
2026-04-19 06:42 19.87913 -68.83493 38008 ft 468 kts 311°
2026-04-19 06:43 19.92087 -68.88790 38008 ft 468 kts 311°
2026-04-19 06:43 19.96253 -68.94083 38007 ft 467 kts 311°
2026-04-19 06:44 20.00408 -68.99365 38004 ft 465 kts 311°
2026-04-19 06:44 20.04528 -69.04608 37998 ft 463 kts 311°
2026-04-19 06:45 20.08681 -69.09896 37992 ft 464 kts 311°
2026-04-19 06:45 20.12775 -69.15115 37986 ft 463 kts 311°
2026-04-19 06:46 20.16889 -69.20365 37983 ft 463 kts 311°
2026-04-19 06:46 20.21029 -69.25654 37982 ft 463 kts 311°
2026-04-19 06:47 20.25136 -69.30904 37982 ft 463 kts 311°
2026-04-19 06:47 20.29238 -69.36153 37982 ft 463 kts 311°
2026-04-19 06:48 20.33348 -69.41415 37981 ft 463 kts 311°
2026-04-19 06:48 20.37464 -69.46691 37981 ft 463 kts 311°
2026-04-19 06:49 20.41578 -69.51969 37981 ft 463 kts 311°
2026-04-19 06:49 20.45667 -69.57220 37981 ft 463 kts 311°
2026-04-19 06:50 20.49794 -69.62525 37981 ft 463 kts 311°
2026-04-19 06:50 20.53887 -69.67790 37981 ft 463 kts 311°
2026-04-19 06:51 20.57970 -69.73049 37982 ft 460 kts 311°
2026-04-19 06:51 20.62051 -69.78308 37982 ft 459 kts 311°
2026-04-19 06:52 20.66106 -69.83540 37982 ft 459 kts 311°
2026-04-19 06:52 20.70183 -69.88804 37982 ft 459 kts 311°
2026-04-19 06:53 20.74243 -69.94051 37982 ft 459 kts 311°
2026-04-19 06:53 20.78312 -69.99316 37982 ft 459 kts 311°
2026-04-19 06:54 20.82361 -70.04559 37982 ft 459 kts 311°
2026-04-19 06:54 20.86417 -70.09816 37982 ft 459 kts 311°
2026-04-19 06:55 20.90472 -70.15076 37982 ft 459 kts 311°
2026-04-19 06:55 20.94526 -70.20341 37981 ft 459 kts 311°
2026-04-19 06:56 20.98604 -70.25640 37982 ft 459 kts 311°
2026-04-19 06:56 21.02650 -70.30901 37982 ft 458 kts 310°
2026-04-19 06:57 21.06672 -70.36138 37982 ft 459 kts 310°
2026-04-19 06:57 21.10713 -70.41404 37982 ft 460 kts 310°
2026-04-19 06:58 21.14769 -70.46697 37982 ft 459 kts 310°
2026-04-19 06:58 21.18811 -70.51977 37981 ft 459 kts 310°
2026-04-19 06:59 21.22864 -70.57277 37981 ft 459 kts 310°
2026-04-19 06:59 21.26898 -70.62555 37981 ft 459 kts 310°
2026-04-19 07:00 21.30940 -70.67850 37981 ft 459 kts 310°
2026-04-19 07:00 21.34976 -70.73140 37981 ft 459 kts 310°
2026-04-19 07:01 21.39007 -70.78429 37981 ft 459 kts 310°
2026-04-19 07:01 21.43042 -70.83725 37981 ft 459 kts 310°
2026-04-19 07:02 21.47070 -70.89014 37981 ft 459 kts 309°
2026-04-19 07:02 21.51108 -70.94328 37980 ft 458 kts 309°
2026-04-19 07:03 21.55096 -70.99648 37980 ft 459 kts 306°
2026-04-19 07:03 21.58690 -71.05293 37981 ft 460 kts 300°
2026-04-19 07:04 21.61787 -71.11306 37983 ft 461 kts 296°
2026-04-19 07:04 21.64737 -71.17384 37982 ft 460 kts 296°
2026-04-19 07:05 21.67705 -71.23507 37981 ft 460 kts 296°
2026-04-19 07:05 21.70667 -71.29610 37981 ft 461 kts 296°
2026-04-19 07:06 21.73619 -71.35695 37981 ft 461 kts 296°
2026-04-19 07:06 21.76574 -71.41794 37981 ft 461 kts 296°
2026-04-19 07:07 21.79530 -71.47897 37982 ft 461 kts 296°
2026-04-19 07:07 21.82500 -71.54038 37981 ft 461 kts 296°
2026-04-19 07:08 21.85454 -71.60152 37981 ft 460 kts 296°
2026-04-19 07:08 21.88399 -71.66259 37982 ft 460 kts 296°
2026-04-19 07:09 21.91333 -71.72347 37981 ft 460 kts 296°
2026-04-19 07:09 21.94281 -71.78471 37982 ft 461 kts 296°
2026-04-19 07:10 21.97195 -71.84533 37981 ft 460 kts 296°
2026-04-19 07:10 22.00136 -71.90658 37981 ft 461 kts 296°
2026-04-19 07:11 22.03079 -71.96793 37982 ft 460 kts 296°
2026-04-19 07:11 22.06009 -72.02911 37981 ft 461 kts 296°
2026-04-19 07:12 22.08949 -72.09053 37981 ft 460 kts 296°
2026-04-19 07:12 22.11883 -72.15192 37983 ft 460 kts 296°
2026-04-19 07:13 22.14809 -72.21322 37990 ft 461 kts 296°
2026-04-19 07:13 22.17731 -72.27450 38006 ft 460 kts 296°
2026-04-19 07:14 22.20656 -72.33591 38026 ft 460 kts 296°
2026-04-19 07:14 22.23577 -72.39732 38046 ft 461 kts 296°
2026-04-19 07:15 22.26487 -72.45858 38060 ft 460 kts 296°
2026-04-19 07:16 22.30877 -72.55113 38068 ft 460 kts 296°
2026-04-19 07:16 22.33782 -72.61246 38069 ft 460 kts 296°
2026-04-19 07:17 22.36683 -72.67379 38069 ft 460 kts 296°
2026-04-19 07:17 22.39603 -72.73558 38069 ft 460 kts 296°
2026-04-19 07:18 22.42495 -72.79685 38069 ft 460 kts 296°
2026-04-19 07:18 22.45415 -72.85878 38069 ft 461 kts 296°
2026-04-19 07:19 22.48297 -72.92001 38069 ft 460 kts 296°
2026-04-19 07:19 22.51193 -72.98170 38069 ft 460 kts 296°
2026-04-19 07:20 22.54087 -73.04344 38070 ft 458 kts 296°
2026-04-19 07:20 22.56965 -73.10488 38071 ft 457 kts 296°
2026-04-19 07:21 22.59813 -73.16578 38071 ft 455 kts 296°
2026-04-19 07:21 22.62639 -73.22623 38070 ft 454 kts 296°
2026-04-19 07:22 22.65468 -73.28683 38069 ft 453 kts 296°
2026-04-19 07:22 22.68312 -73.34782 38069 ft 453 kts 296°
2026-04-19 07:23 22.71133 -73.40840 38069 ft 453 kts 296°
2026-04-19 07:23 22.73968 -73.46935 38070 ft 453 kts 296°
2026-04-19 07:24 22.76808 -73.53048 38070 ft 453 kts 296°
2026-04-19 07:24 22.79640 -73.59151 38069 ft 453 kts 296°
2026-04-19 07:25 22.82476 -73.65272 38069 ft 453 kts 296°
2026-04-19 07:25 22.85313 -73.71403 38070 ft 453 kts 296°
2026-04-19 07:26 22.88121 -73.77478 38069 ft 453 kts 296°
2026-04-19 07:26 22.90953 -73.83609 38070 ft 453 kts 296°
2026-04-19 07:27 22.93766 -73.89707 38070 ft 453 kts 296°
2026-04-19 07:27 22.96591 -73.95840 38070 ft 453 kts 295°
2026-04-19 07:28 22.99400 -74.01949 38070 ft 453 kts 295°
2026-04-19 07:28 23.02193 -74.08027 38069 ft 453 kts 295°
2026-04-19 07:29 23.05006 -74.14159 38070 ft 453 kts 295°
2026-04-19 07:29 23.07819 -74.20303 38070 ft 453 kts 295°
2026-04-19 07:30 23.10622 -74.26430 38070 ft 453 kts 295°
2026-04-19 07:30 23.13426 -74.32564 38070 ft 454 kts 295°
2026-04-19 07:31 23.16234 -74.38716 38070 ft 454 kts 295°
2026-04-19 07:31 23.19021 -74.44829 38069 ft 453 kts 295°
2026-04-19 07:32 23.21822 -74.50980 38069 ft 453 kts 295°
2026-04-19 07:32 23.24601 -74.57091 38070 ft 453 kts 295°
2026-04-19 07:33 23.27409 -74.63274 38069 ft 453 kts 295°
2026-04-19 07:33 23.30184 -74.69390 38069 ft 453 kts 295°
2026-04-19 07:34 23.32977 -74.75555 38069 ft 453 kts 295°
2026-04-19 07:34 23.35755 -74.81692 38069 ft 453 kts 295°
2026-04-19 07:35 23.38499 -74.87890 38069 ft 453 kts 292°
2026-04-19 07:35 23.40764 -74.94249 38069 ft 453 kts 288°
2026-04-19 07:36 23.42763 -75.00771 38061 ft 454 kts 287°
2026-04-19 07:36 23.44745 -75.07301 38055 ft 455 kts 287°
2026-04-19 07:37 23.46732 -75.13842 38053 ft 456 kts 287°
2026-04-19 07:37 23.48702 -75.20332 38052 ft 456 kts 287°
2026-04-19 07:38 23.50692 -75.26894 38052 ft 456 kts 287°
2026-04-19 07:38 23.52672 -75.33434 38052 ft 456 kts 287°
2026-04-19 07:39 23.54661 -75.40016 38052 ft 456 kts 287°
2026-04-19 07:39 23.56643 -75.46584 38052 ft 456 kts 287°
2026-04-19 07:40 23.58617 -75.53140 38052 ft 456 kts 287°
2026-04-19 07:40 23.60473 -75.59310 38052 ft 456 kts 287°
2026-04-19 07:41 23.62526 -75.66148 38052 ft 456 kts 287°
2026-04-19 07:41 23.64503 -75.72744 38052 ft 456 kts 287°
2026-04-19 07:42 23.66460 -75.79282 38052 ft 456 kts 287°
2026-04-19 07:42 23.68430 -75.85880 38052 ft 456 kts 287°
2026-04-19 07:43 23.70386 -75.92440 38052 ft 456 kts 287°
2026-04-19 07:43 23.72335 -75.98986 38052 ft 456 kts 287°
2026-04-19 07:44 23.74292 -76.05571 38052 ft 456 kts 287°
2026-04-19 07:44 23.76251 -76.12176 38053 ft 456 kts 287°
2026-04-19 07:45 23.78204 -76.18774 38053 ft 456 kts 287°
2026-04-19 07:45 23.80138 -76.25316 38054 ft 456 kts 287°
2026-04-19 07:46 23.82084 -76.31909 38056 ft 456 kts 287°
2026-04-19 07:46 23.84027 -76.38504 38059 ft 456 kts 287°
2026-04-19 07:47 23.85963 -76.45087 38060 ft 456 kts 287°
2026-04-19 07:47 23.87576 -76.50581 38061 ft 456 kts 287°
2026-04-19 07:48 23.89515 -76.57196 38061 ft 456 kts 287°
2026-04-19 07:48 23.91446 -76.63797 38061 ft 456 kts 287°
2026-04-19 07:49 23.93374 -76.70396 38059 ft 456 kts 287°
2026-04-19 07:49 23.95297 -76.76989 38057 ft 456 kts 287°
2026-04-19 07:50 23.97104 -76.83197 38055 ft 456 kts 287°
2026-04-19 07:50 23.99101 -76.90067 38054 ft 454 kts 286°
2026-04-19 07:51 24.00968 -76.96500 38053 ft 452 kts 286°
2026-04-19 07:51 24.02857 -77.03024 38052 ft 449 kts 286°
2026-04-19 07:52 24.04741 -77.09544 38052 ft 448 kts 286°
2026-04-19 07:52 24.06579 -77.15916 38053 ft 448 kts 286°
2026-04-19 07:53 24.08666 -77.23159 38052 ft 448 kts 286°
2026-04-19 07:53 24.10510 -77.29578 38052 ft 448 kts 286°
2026-04-19 07:54 24.12401 -77.36166 38052 ft 448 kts 286°
2026-04-19 07:54 24.14253 -77.42630 38052 ft 448 kts 286°
2026-04-19 07:55 24.16071 -77.48988 38052 ft 448 kts 286°
2026-04-19 07:55 24.17813 -77.55085 38052 ft 448 kts 286°
2026-04-19 07:56 24.19766 -77.61940 38052 ft 448 kts 286°
2026-04-19 07:56 24.21507 -77.68058 38052 ft 448 kts 286°
2026-04-19 07:57 24.23441 -77.74868 38052 ft 448 kts 286°
2026-04-19 07:57 24.25273 -77.81016 38051 ft 449 kts 289°
2026-04-19 07:58 24.27791 -77.87503 38052 ft 450 kts 294°
2026-04-19 07:58 24.30812 -77.93516 38052 ft 452 kts 300°
2026-04-19 07:59 24.34210 -77.99162 38052 ft 452 kts 302°
2026-04-19 07:59 24.37688 -78.04802 38052 ft 452 kts 302°
2026-04-19 08:00 24.41207 -78.10519 38052 ft 452 kts 301°
2026-04-19 08:00 24.44721 -78.16245 38053 ft 452 kts 301°
2026-04-19 08:01 24.48230 -78.21973 38052 ft 452 kts 301°
2026-04-19 08:01 24.51624 -78.27520 38052 ft 452 kts 301°
2026-04-19 08:02 24.55157 -78.33302 38052 ft 452 kts 301°
2026-04-19 08:02 24.58583 -78.38917 37803 ft 455 kts 301°
2026-04-19 08:02 24.60350 -78.41815 37180 ft 457 kts 301°
2026-04-19 08:03 24.62139 -78.44751 36604 ft 456 kts 301°
2026-04-19 08:03 24.63911 -78.47660 36016 ft 456 kts 301°
2026-04-19 08:03 24.65665 -78.50541 35434 ft 455 kts 301°
2026-04-19 08:03 24.67447 -78.53469 34825 ft 455 kts 301°
2026-04-19 08:04 24.69219 -78.56383 34219 ft 455 kts 301°
2026-04-19 08:04 24.70977 -78.59278 33617 ft 455 kts 301°
2026-04-19 08:04 24.72715 -78.62141 32999 ft 455 kts 301°
2026-04-19 08:04 24.74480 -78.65049 32366 ft 455 kts 302°
2026-04-19 08:05 24.76231 -78.67937 31718 ft 455 kts 302°
2026-04-19 08:05 24.77988 -78.70837 31055 ft 456 kts 302°
2026-04-19 08:05 24.79745 -78.73737 30388 ft 456 kts 302°
2026-04-19 08:05 24.81510 -78.76655 29707 ft 456 kts 302°
2026-04-19 08:06 24.83267 -78.79561 29036 ft 456 kts 302°
2026-04-19 08:06 24.85004 -78.82435 28338 ft 457 kts 302°
2026-04-19 08:06 24.86774 -78.85365 27667 ft 456 kts 302°
2026-04-19 08:06 24.88528 -78.88269 27223 ft 451 kts 302°
2026-04-19 08:07 24.90255 -78.91129 26695 ft 447 kts 302°
2026-04-19 08:07 24.91984 -78.93997 26201 ft 443 kts 302°
2026-04-19 08:07 24.93685 -78.96819 25664 ft 440 kts 302°
2026-04-19 08:07 24.95351 -78.99585 25166 ft 437 kts 302°
2026-04-19 08:08 24.97022 -79.02361 24703 ft 432 kts 302°
2026-04-19 08:08 24.98708 -79.05161 24246 ft 427 kts 302°
2026-04-19 08:08 25.00348 -79.07889 23807 ft 423 kts 302°
2026-04-19 08:08 25.01966 -79.10582 23384 ft 418 kts 301°
2026-04-19 08:09 25.03570 -79.13254 22969 ft 414 kts 301°
2026-04-19 08:09 25.05140 -79.15871 22562 ft 409 kts 301°
2026-04-19 08:09 25.06708 -79.18486 22149 ft 405 kts 301°
2026-04-19 08:09 25.08250 -79.21059 21738 ft 401 kts 302°
2026-04-19 08:10 25.09781 -79.23614 21326 ft 398 kts 302°
2026-04-19 08:10 25.11302 -79.26155 20906 ft 395 kts 302°
2026-04-19 08:10 25.12814 -79.28682 20484 ft 392 kts 302°
2026-04-19 08:10 25.14296 -79.31157 20324 ft 381 kts 302°
2026-04-19 08:11 25.15738 -79.33567 20224 ft 369 kts 302°
2026-04-19 08:11 25.17133 -79.35899 20111 ft 358 kts 302°
2026-04-19 08:11 25.18490 -79.38170 20008 ft 347 kts 302°
2026-04-19 08:11 25.19803 -79.40369 19913 ft 340 kts 302°
2026-04-19 08:12 25.21107 -79.42555 19662 ft 340 kts 302°
2026-04-19 08:12 25.22405 -79.44734 19276 ft 340 kts 302°
2026-04-19 08:12 25.23685 -79.46882 18918 ft 339 kts 302°
2026-04-19 08:12 25.24994 -79.49078 18558 ft 337 kts 302°
2026-04-19 08:13 25.26290 -79.51255 18205 ft 336 kts 302°
2026-04-19 08:13 25.27567 -79.53399 17860 ft 334 kts 302°
2026-04-19 08:13 25.28861 -79.55572 17509 ft 333 kts 302°
2026-04-19 08:13 25.30003 -79.57492 17199 ft 332 kts 302°
2026-04-19 08:14 25.31361 -79.59777 16831 ft 330 kts 302°
2026-04-19 08:14 25.33892 -79.64035 16147 ft 328 kts 302°
2026-04-19 08:14 25.35134 -79.66127 15813 ft 326 kts 302°
2026-04-19 08:15 25.36390 -79.68245 15472 ft 325 kts 302°
2026-04-19 08:15 25.37623 -79.70322 15141 ft 324 kts 302°
2026-04-19 08:15 25.38868 -79.72408 14807 ft 323 kts 304°
2026-04-19 08:15 25.40163 -79.74447 14472 ft 321 kts 304°
2026-04-19 08:16 25.41452 -79.76452 14143 ft 320 kts 305°
2026-04-19 08:16 25.42747 -79.78464 13811 ft 319 kts 305°
2026-04-19 08:16 25.44000 -79.80412 13490 ft 318 kts 305°
2026-04-19 08:16 25.45297 -79.82432 13160 ft 317 kts 305°
2026-04-19 08:17 25.46556 -79.84394 12837 ft 316 kts 305°
2026-04-19 08:17 25.47822 -79.86369 12514 ft 315 kts 305°
2026-04-19 08:17 25.49109 -79.88377 12185 ft 314 kts 305°
2026-04-19 08:17 25.50355 -79.90322 11866 ft 313 kts 305°
2026-04-19 08:18 25.51619 -79.92296 11543 ft 312 kts 305°
2026-04-19 08:18 25.52862 -79.94237 11229 ft 311 kts 305°
2026-04-19 08:18 25.54119 -79.96203 10911 ft 310 kts 305°
2026-04-19 08:18 25.55363 -79.98148 10703 ft 305 kts 305°
2026-04-19 08:19 25.56555 -80.00012 10681 ft 293 kts 305°
2026-04-19 08:19 25.57711 -80.01820 10649 ft 282 kts 305°
2026-04-19 08:19 25.58804 -80.03531 10595 ft 274 kts 305°
2026-04-19 08:19 25.59918 -80.05276 10318 ft 275 kts 306°
2026-04-19 08:20 25.60982 -80.06943 10051 ft 274 kts 306°
2026-04-19 08:20 25.62081 -80.08665 9786 ft 273 kts 306°
2026-04-19 08:20 25.63158 -80.10354 9528 ft 272 kts 305°
2026-04-19 08:20 25.64244 -80.12058 9270 ft 271 kts 305°
2026-04-19 08:21 25.65209 -80.13693 9028 ft 270 kts 301°
2026-04-19 08:21 25.66137 -80.15572 8787 ft 270 kts 296°
2026-04-19 08:21 25.66856 -80.17236 8557 ft 270 kts 295°
2026-04-19 08:21 25.67718 -80.19273 8267 ft 269 kts 295°
2026-04-19 08:22 25.68431 -80.20961 8006 ft 269 kts 295°
2026-04-19 08:22 25.69274 -80.22953 7495 ft 268 kts 295°
2026-04-19 08:22 25.69974 -80.24603 7100 ft 266 kts 295°
2026-04-19 08:22 25.70787 -80.26617 6603 ft 264 kts 289°
2026-04-19 08:23 25.71173 -80.28578 6149 ft 263 kts 275°
2026-04-19 08:23 25.71182 -80.30532 5714 ft 262 kts 268°
2026-04-19 08:23 25.71082 -80.32546 5385 ft 260 kts 266°
2026-04-19 08:23 25.70982 -80.34290 5120 ft 259 kts 266°
2026-04-19 08:24 25.70864 -80.36444 5005 ft 249 kts 267°
2026-04-19 08:24 25.70770 -80.38290 5013 ft 255 kts 267°
2026-04-19 08:24 25.70668 -80.40346 5014 ft 268 kts 267°
2026-04-19 08:24 25.70567 -80.42428 5008 ft 269 kts 267°
2026-04-19 08:25 25.70500 -80.44135 5005 ft 269 kts 272°
2026-04-19 08:25 25.70819 -80.46152 5002 ft 269 kts 290°
2026-04-19 08:25 25.71684 -80.47954 4767 ft 269 kts 309°
2026-04-19 08:25 25.73132 -80.49229 4341 ft 265 kts 337°
2026-04-19 08:26 25.74871 -80.49618 3936 ft 258 kts
2026-04-19 08:26 25.76569 -80.49096 3530 ft 252 kts 32°
2026-04-19 08:26 25.77753 -80.47775 3135 ft 245 kts 62°
2026-04-19 08:26 25.78165 -80.46022 3003 ft 227 kts 86°
2026-04-19 08:27 25.78175 -80.44406 2993 ft 207 kts 90°
2026-04-19 08:27 25.78165 -80.42856 2908 ft 195 kts 89°
2026-04-19 08:27 25.78196 -80.41464 2581 ft 192 kts 87°
2026-04-19 08:27 25.78258 -80.39948 2251 ft 187 kts 86°
2026-04-19 08:28 25.78317 -80.38599 2060 ft 175 kts 86°
2026-04-19 08:28 25.78363 -80.37280 1737 ft 174 kts 89°
2026-04-19 08:28 25.78370 -80.36140 1294 ft 182 kts 87°
2026-04-19 08:28 25.78459 -80.34758 885 ft 183 kts 85°